Burlington, IA

11:13 AM CST on December 06, 2016 (GMT -0600)
Burlington Regional

Weather History for KBRL - March, 2014

Change the Weather History Date:

Monday, March 17, 2014

  Actual Average Record
Temperature  
Mean Temperature 25 °F 42 °F  
Max Temperature 40 °F 52 °F 82 °F (2012)
Min Temperature 9 °F 32 °F 0 °F (1906)
Degree Days  
Heating Degree Days 40 23  
Month to date heating degree days 607 451  
Since 1 July heating degree days 5930 4829  
Cooling Degree Days 0 0  
Month to date cooling degree days 0 0  
Year to date cooling degree days 0 0  
Moisture  
Dew Point 16 °F    
Average Humidity 70    
Maximum Humidity 92    
Minimum Humidity 48    
Precipitation  
Precipitation 0.00 in 0.10 in 1.15 in (1998)
Month to date precipitation 0.83 1.48  
Year to date precipitation 5.20 4.34  
Sea Level Pressure  
Sea Level Pressure 29.90 in    
Wind  
Wind Speed 8 mph (SE)    
Max Wind Speed 15 mph    
Max Gust Speed 20 mph    
Visibility 10 miles    
Events      
T = Trace of Precipitation, MM = Missing Value Source: NWS Daily Summary

Daily Weather History Graph

Daily Weather History Graph

Search for Another Location

Airport or City:

Trip Planner

Search our weather history database for the weather conditions in past years. The results will help you decide how hot, cold, wet, or windy it might be!

Date:

Astronomy

Mar. 17, 2014 Rise Set
Actual Time 7:12 AM CDT 7:13 PM CDT
Civil Twilight 6:45 AM CDT 7:40 PM CDT
Nautical Twilight 6:13 AM CDT 8:12 PM CDT
Astronomical Twilight 5:41 AM CDT 8:45 PM CDT
Moon 8:31 PM CDT (3/17) 7:28 AM CDT (3/17)
Length of Visible Light 12h 55m
Length of Day
12h 00m
Full, 99% of the Moon is Illuminated
Mar 17
Full
Mar 23
Last Quarter
Mar 30
New
Apr 7
First Quarter
Apr 15
Full

Hourly Weather History & Observations

Time (CDT) Temp. Windchill Dew Point Humidity Pressure Visibility Wind Dir Wind Speed Gust Speed Precip Events Conditions
12:53 AM 19.9 °F 10.1 °F 10.9 °F 68% 30.14 in 10.0 mi ENE 8.1 mph - N/A   Clear
1:53 AM 19.0 °F 11.1 °F 10.9 °F 71% 30.12 in 10.0 mi ENE 5.8 mph - N/A   Clear
2:53 AM 18.0 °F 7.7 °F 10.9 °F 74% 30.08 in 10.0 mi East 8.1 mph - N/A   Clear
3:53 AM 16.0 °F 7.4 °F 10.9 °F 81% 30.05 in 10.0 mi East 5.8 mph - N/A   Clear
4:53 AM 16.0 °F 10.4 °F 10.0 °F 77% 30.03 in 10.0 mi East 3.5 mph - N/A   Clear
5:53 AM 16.0 °F - 10.0 °F 77% 30.02 in 10.0 mi Calm Calm - N/A   Clear
6:53 AM 10.0 °F - 8.1 °F 92% 30.03 in 10.0 mi Calm Calm - N/A   Clear
7:53 AM 15.1 °F 9.4 °F 10.9 °F 84% 29.99 in 10.0 mi SE 3.5 mph - N/A   Clear
8:53 AM 19.0 °F 10.0 °F 12.0 °F 74% 29.98 in 10.0 mi SSE 6.9 mph - N/A   Clear
9:53 AM 21.9 °F 14.5 °F 12.9 °F 68% 29.98 in 10.0 mi SSE 5.8 mph - N/A   Clear
10:53 AM 25.0 °F 19.3 °F 15.1 °F 66% 29.96 in 10.0 mi SSE 4.6 mph - N/A   Clear
11:53 AM 27.0 °F 18.7 °F 15.1 °F 61% 29.95 in 10.0 mi South 8.1 mph - N/A   Clear
12:53 PM 30.0 °F 22.4 °F 16.0 °F 56% 29.90 in 10.0 mi South 8.1 mph - N/A   Clear
1:53 PM 32.0 °F 23.6 °F 17.1 °F 54% 29.85 in 10.0 mi South 10.4 mph - N/A   Clear
2:53 PM 34.0 °F 26.0 °F 21.0 °F 59% 29.82 in 10.0 mi South 10.4 mph - N/A   Clear
3:53 PM 37.0 °F 28.9 °F 21.9 °F 54% 29.77 in 10.0 mi South 12.7 mph - N/A   Clear
4:53 PM 39.0 °F 32.3 °F 23.0 °F 53% 29.75 in 10.0 mi South 10.4 mph - N/A   Clear
5:53 PM 39.0 °F 33.4 °F 23.0 °F 53% 29.74 in 10.0 mi SSE 8.1 mph - N/A   Clear
6:53 PM 37.9 °F 31.5 °F 21.0 °F 51% 29.74 in 10.0 mi SSE 9.2 mph - N/A   Clear
7:53 PM 37.9 °F 30.5 °F 19.9 °F 48% 29.75 in 10.0 mi SSE 11.5 mph - N/A   Clear
8:53 PM 37.0 °F 29.3 °F 21.0 °F 52% 29.75 in 10.0 mi SSE 11.5 mph - N/A   Clear
9:53 PM 37.0 °F 28.9 °F 21.0 °F 52% 29.74 in 10.0 mi SSE 12.7 mph - N/A   Clear
10:53 PM 36.0 °F 28.0 °F 21.0 °F 55% 29.74 in 10.0 mi SSE 11.5 mph - N/A   Clear
11:53 PM 36.0 °F 28.5 °F 19.9 °F 52% 29.75 in 10.0 mi SSE 10.4 mph - N/A   Clear